Starlink 4464

operational
NORAD ID: 53669 Int'l Des: 2022-105 Owner: SPXS Country: US Constellation: starlink
LEOCIRCULARRETROGRADESSO

Über Starlink 4464

Beschreibung wird geladen...

Live-Position

3D-Globus wird geladen...

Nächste Überflüge

Höhenverlauf

Altitude vs Time

uPlot chart will show altitude changes over time

Zweizeiliger Elementsatz

1 53669U 22105X 25352.23650636 .00001140 00000-0 93199-4 0 9998
2 53669 97.6014 230.4529 0000303 137.9990 222.1258 15.01276143181010
Epoch: 18. Dez. 2025 • Age: 15 hours

Aktueller Status

Höhe 574.8 km
Geschwindigkeit 7.58 km/s
Subsatellitenpunkt 68.64°N, 177.77°E
Startdatum 31. Aug. 2022
Alter 3.2 years
Typ internet

Technische Details

Klassifizierung Payload
Masse 300.00 kg
Trockenmasse 290.00 kg
Gesamtmasse 300.00 kg
Länge 0.20 m
Durchmesser 2.80 m
Spannweite 9.00 m
Form Box + pan
Hersteller SPXS
Bus-Typ Starlink
Phasenstatus In Orbit
Besitzer/Staat SPXS/US

Große Konstellationen

Loading constellations...